• Processing (Info)

  • MPEC 2005-N65 : 2005 NB56

    The following Minor Planet Electronic Circular may be linked-to from your own Web pages, but must not otherwise be redistributed electronically.

    A form allowing access to any MPEC is at the bottom of this page.


    Read MPEC 2005-N64 Read MPEC 2005-N66


    M.P.E.C. 2005-N65                                Issued 2005 July 12, 18:53 UT
    
         The Minor Planet Electronic Circulars contain information on unusual
             minor planets and routine data on comets.  They are published
       on behalf of Commission 20 of the International Astronomical Union by the
              Minor Planet Center, Smithsonian Astrophysical Observatory,
                              Cambridge, MA 02138, U.S.A.
    
                      Supported in part by the Brinson Foundation
                 Prepared using the Tamkin Foundation Computer Network
    
                                  MPC@CFA.HARVARD.EDU
              URL http://cfa-www.harvard.edu/iau/mpc.html  ISSN 1523-6714
    
                                       2005 NB56
    
    Observations:
         K05N56B* C2005 07 11.42235 22 35 19.64 -08 19 29.2          19.3 V EN065G96
         K05N56B  C2005 07 11.42898 22 35 16.54 -08 20 30.2          19.3 V EN065G96
         K05N56B  C2005 07 11.43568 22 35 13.45 -08 21 32.3          19.1 V EN065G96
         K05N56B  C2005 07 11.44229 22 35 10.35 -08 22 32.3          19.6 V EN065G96
         K05N56B  C2005 07 11.46127 22 35 01.57 -08 25 26.4          19.2 V EN065G96
         K05N56B  C2005 07 11.46216 22 35 01.14 -08 25 34.5          19.2 V EN065G96
         K05N56B  C2005 07 11.46304 22 35 00.74 -08 25 42.6          19.1 V EN065G96
         K05N56B  C2005 07 11.46393 22 35 00.31 -08 25 50.8          19.3 V EN065G96
         K05N56B  C2005 07 12.43094 22 28 35.51 -10 44 22.8          19.0   EN065G96
         K05N56B  C2005 07 12.44427 22 28 29.89 -10 46 10.7          19.3   EN065G96
         K05N56B  C2005 07 12.46157 22 28 22.61 -10 48 29.4          19.5   EN065G96
    
    Observer details:
    G96 Mt. Lemmon Survey.  Observer S. M. Larson.  Measurers E. C. Beshore,
        C. M. Casey, E. J. Christensen, G. J. Garradd, A. D. Grauer, R. E. Hill,
        S. M. Larson, R. H. McNaught.  1.5-m reflector + CCD.
    
    Orbital elements:
    2005 NB56
    Epoch 2005 July 9.0 TT = JDT 2453560.5                  MPC
    M  24.38765              (2000.0)            P               Q
    n   0.49130787     Peri.  113.36614     -0.69269736     +0.71309228
    a   1.5906217      Node   112.32647     -0.69700657     -0.62339062
    e   0.4554590      Incl.    6.70638     -0.18534348     -0.32075465
    P   2.01           H   22.9           G   0.15
    From 11 observations 2005 July 11-12.
    
    Ephemeris:
    2005 NB56                a,e,i = 1.59, 0.46, 7                   q = 0.8662
    Date    TT    R. A. (2000) Decl.     Delta      r     Elong.  Phase     V
    2005 07 09    22 54.84   -01 00.8    0.0609   1.050   122.1    55.1    18.9
    2005 07 14    22 19.38   -13 54.5    0.0842   1.082   139.8    37.3    19.2
    2005 07 19    21 57.11   -20 52.2    0.112    1.115   151.2    26.1    19.6
    2005 07 24    21 41.50   -24 56.4    0.141    1.149   159.1    18.4    19.9
    2005 07 29    21 29.76   -27 27.2    0.174    1.183   164.4    13.4    20.2
    2005 08 03    21 20.68   -29 01.7    0.208    1.218   166.8    10.9    20.6
    2005 08 08    21 13.68   -29 58.8    0.245    1.253   166.2    11.1    21.0
    2005 08 13    21 08.47   -30 29.9    0.284    1.288   163.4    13.0    21.5
    2005 08 18    21 04.85   -30 42.2    0.326    1.323   159.7    15.4    21.9
    
    Kyle E. Smalley              (C) Copyright 2005 MPC           M.P.E.C. 2005-N65
    

    Read MPEC 2005-N64 Read MPEC 2005-N66


    MPEC number:

    Enter an MPEC number in one of the following forms:

    • 1997-B01 (the full form)
    • J97B01 (the packed version of the full form)
    • B01 (the abbreviated form)